Location: Unnamed
(33.0780°N, 97.0417°W)
Time: 17:53:17
(UTC-06:00)

Hubble Space Telescope - Visible Passes

Search period start: 01 March 2021 00:00
Search period end: 11 March 2021 00:00
Orbit: 536 x 539 km, 28.5° (Epoch: 01 March)

Date Brightness Start Highest point End Pass type
(mag) Time Alt. Az. Time Alt. Az. Time Alt. Az.
01 Mar 3.2 19:51:04 10° S 19:51:22 10° SSE 19:51:22 10° SSE visible
02 Mar 2.8 19:39:03 10° S 19:41:08 14° SSE 19:41:26 14° SSE visible
03 Mar 2.6 19:27:31 10° SSW 19:30:11 17° SSE 19:31:27 15° SE visible
04 Mar 2.5 19:16:11 10° SSW 19:19:14 20° SSE 19:21:25 14° ESE visible
04 Mar 3.6 20:56:09 10° WSW 20:56:45 14° WSW 20:56:45 14° WSW visible
05 Mar 2.3 19:04:58 10° SW 19:08:18 24° SSE 19:11:20 11° ESE visible
05 Mar 3.0 20:45:12 10° WSW 20:46:40 20° WSW 20:46:40 20° WSW visible
06 Mar 2.1 18:53:51 10° SW 18:57:21 27° SSE 19:00:53 10° ESE visible
06 Mar 2.4 20:34:17 10° WSW 20:36:32 28° SW 20:36:32 28° SW visible
07 Mar 1.8 20:23:23 10° WSW 20:26:23 37° SW 20:26:23 37° SW visible
08 Mar 1.4 20:12:30 10° WSW 20:16:13 43° SSW 20:16:13 43° SSW visible
09 Mar 1.4 20:01:37 10° WSW 20:05:31 41° S 20:06:02 39° SSE visible
10 Mar 1.6 19:50:46 10° WSW 19:54:37 39° S 19:55:51 31° SSE visible
